| time (UTC) | temp F | wind direction | speed MPH | gust MPH | rain 1hr in | rain 24hr in | rain mn in | humidity % | barometer mb |
| 20260504034751 | 48 | 276 | 2.0 | 3.0 | 0.00 | 0.00 | 0.00 | 53 | 1017.1 |
| 20260504034248 | 47 | 266 | 2.0 | 3.0 | 0.00 | 0.00 | 0.00 | 53 | 1016.9 |
| 20260504033745 | 48 | 321 | 1.0 | 2.0 | 0.00 | 0.00 | 0.00 | 53 | 1017.0 |
| 20260504033243 | 48 | 264 | 1.0 | 1.0 | 0.00 | 0.00 | 0.00 | 55 | 1016.9 |
| 20260504032740 | 49 | 321 | 1.0 | 1.0 | 0.00 | 0.00 | 0.00 | 54 | 1017.1 |
| 20260504032237 | 49 | 238 | 1.0 | 2.0 | 0.00 | 0.00 | 0.00 | 50 | 1017.0 |
| 20260504031733 | 49 | 238 | 1.0 | 2.0 | 0.00 | 0.00 | 0.00 | 51 | 1017.0 |
| 20260504031231 | 49 | 238 | 2.0 | 2.0 | 0.00 | 0.00 | 0.00 | 52 | 1016.9 |
| 20260504030726 | 48 | 238 | 1.0 | 2.0 | 0.00 | 0.00 | 0.00 | 54 | 1016.9 |
| 20260504030224 | 47 | 238 | 1.0 | 2.0 | 0.00 | 0.00 | 0.00 | 57 | 1016.9 |
| 20260504025720 | 46 | 238 | 1.0 | 1.0 | 0.00 | 0.00 | 0.00 | 62 | 1016.7 |
| 20260504025217 | 45 | 237 | 1.0 | 2.0 | 0.00 | 0.00 | 0.00 | 65 | 1016.5 |
| 20260504024715 | 45 | 236 | 0.0 | 2.0 | 0.00 | 0.00 | 0.00 | 67 | 1016.5 |
| 20260504024211 | 49 | 245 | 1.0 | 2.0 | 0.00 | 0.00 | 0.00 | 50 | 1016.6 |
| 20260504023708 | 48 | 315 | 0.0 | 1.0 | 0.00 | 0.00 | 0.00 | 51 | 1016.4 |
| 20260504023203 | 47 | 316 | 1.0 | 2.0 | 0.00 | 0.00 | 0.00 | 51 | 1016.4 |
| 20260504022700 | 47 | 318 | 0.0 | 0.0 | 0.00 | 0.00 | 0.00 | 56 | 1016.4 |
| 20260504022156 | 47 | 318 | 1.0 | 2.0 | 0.00 | 0.00 | 0.00 | 54 | 1016.4 |
| 20260504021654 | 49 | 315 | 0.0 | 0.0 | 0.00 | 0.00 | 0.00 | 54 | 1016.4 |
| 20260504021150 | 49 | 315 | 0.0 | 0.0 | 0.00 | 0.00 | 0.00 | 48 | 1016.3 |
| 20260504020647 | 49 | 315 | 0.0 | 0.0 | 0.00 | 0.00 | 0.00 | 47 | 1016.3 |
| 20260504020143 | 49 | 315 | 0.0 | 0.0 | 0.00 | 0.00 | 0.00 | 49 | 1016.4 |
| 20260504015640 | 50 | 315 | 0.0 | 0.0 | 0.00 | 0.00 | 0.00 | 47 | 1016.2 |
| 20260504015136 | 49 | 315 | 0.0 | 2.0 | 0.00 | 0.00 | 0.00 | 48 | 1016.0 |
| 20260504014632 | 49 | 315 | 1.0 | 2.0 | 0.00 | 0.00 | 0.00 | 48 | 1016.2 |
| 20260504014130 | 49 | 316 | 0.0 | 0.0 | 0.00 | 0.00 | 0.00 | 53 | 1016.4 |
| 20260504013627 | 50 | 316 | 0.0 | 0.0 | 0.00 | 0.00 | 0.00 | 45 | 1016.3 |
| 20260504013124 | 50 | 316 | 0.0 | 0.0 | 0.00 | 0.00 | 0.00 | 46 | 1016.3 |
| 20260504012621 | 50 | 316 | 0.0 | 0.0 | 0.00 | 0.00 | 0.00 | 48 | 1016.2 |
| 20260504012120 | 49 | 316 | 0.0 | 1.0 | 0.00 | 0.00 | 0.00 | 46 | 1016.2 |
| 20260504011616 | 48 | 316 | 0.0 | 0.0 | 0.00 | 0.00 | 0.00 | 48 | 1016.1 |
| 20260504011112 | 49 | 316 | 0.0 | 0.0 | 0.00 | 0.00 | 0.00 | 48 | 1016.1 |
| 20260504010608 | 49 | 316 | 0.0 | 0.0 | 0.00 | 0.00 | 0.00 | 47 | 1016.0 |
| 20260504010104 | 50 | 316 | 0.0 | 0.0 | 0.00 | 0.00 | 0.00 | 53 | 1016.0 |
| 20260504005601 | 51 | 316 | 0.0 | 0.0 | 0.00 | 0.00 | 0.00 | 46 | 1016.1 |
| 20260504005058 | 51 | 316 | 0.0 | 0.0 | 0.00 | 0.00 | 0.00 | 46 | 1016.1 |
| 20260504004556 | 51 | 316 | 0.0 | 1.0 | 0.00 | 0.00 | 0.00 | 46 | 1015.8 |
| 20260504004053 | 50 | 316 | 0.0 | 1.0 | 0.00 | 0.00 | 0.00 | 48 | 1016.0 |
| 20260504003549 | 51 | 316 | 0.0 | 0.0 | 0.00 | 0.00 | 0.00 | 45 | 1015.9 |
| 20260504003046 | 51 | 316 | 0.0 | 0.0 | 0.00 | 0.00 | 0.00 | 44 | 1015.8 |
| 20260504002542 | 52 | 316 | 0.0 | 0.0 | 0.00 | 0.00 | 0.00 | 44 | 1015.9 |
| 20260504002040 | 53 | 316 | 0.0 | 0.0 | 0.00 | 0.00 | 0.00 | 41 | 1015.9 |
| 20260504001538 | 54 | 316 | 0.0 | 0.0 | 0.00 | 0.00 | 0.00 | 40 | 1015.8 |
| 20260504001034 | 55 | 316 | 0.0 | 1.0 | 0.00 | 0.00 | 0.00 | 37 | 1015.8 |
| 20260504000531 | 56 | 316 | 0.0 | 0.0 | 0.00 | 0.00 | 0.00 | 37 | 1015.7 |
| 20260504000028 | 56 | 351 | 1.0 | 1.0 | 0.00 | 0.00 | 0.00 | 36 | 1015.7 |
| 20260503235526 | 57 | 351 | 0.0 | 1.0 | 0.00 | 0.00 | 0.00 | 35 | 1015.6 |
| 20260503235023 | 58 | 351 | 0.0 | 1.0 | 0.00 | 0.00 | 0.00 | 35 | 1015.5 |
| 20260503234521 | 58 | 301 | 2.0 | 2.0 | 0.00 | 0.00 | 0.00 | 34 | 1015.5 |
| 20260503234019 | 58 | 354 | 2.0 | 2.0 | 0.00 | 0.00 | 0.00 | 34 | 1015.5 |
| 20260503233515 | 59 | 12 | 0.0 | 3.0 | 0.00 | 0.00 | 0.00 | 33 | 1015.5 |
| 20260503233011 | 59 | 12 | 2.0 | 3.0 | 0.00 | 0.00 | 0.00 | 32 | 1015.5 |
| 20260503232508 | 59 | 271 | 3.0 | 4.0 | 0.00 | 0.00 | 0.00 | 34 | 1015.5 |
| 20260503232006 | 59 | 342 | 0.0 | 1.0 | 0.00 | 0.00 | 0.00 | 34 | 1015.5 |
| 20260503231504 | 59 | 10 | 2.0 | 3.0 | 0.00 | 0.00 | 0.00 | 33 | 1015.4 |
| 20260503231000 | 60 | 277 | 2.0 | 2.0 | 0.00 | 0.00 | 0.00 | 32 | 1015.3 |
| 20260503230456 | 61 | 277 | 2.0 | 3.0 | 0.00 | 0.00 | 0.00 | 31 | 1015.3 |
| 20260503225954 | 61 | 355 | 1.0 | 2.0 | 0.00 | 0.00 | 0.00 | 31 | 1015.3 |
| 20260503225450 | 61 | 17 | 4.0 | 9.0 | 0.00 | 0.00 | 0.00 | 31 | 1015.2 |
| 20260503224946 | 61 | 15 | 4.0 | 8.0 | 0.00 | 0.00 | 0.00 | 30 | 1015.2 |
| 20260503224443 | 62 | 307 | 5.0 | 7.0 | 0.00 | 0.00 | 0.00 | 30 | 1015.2 |
| 20260503223941 | 62 | 311 | 1.0 | 2.0 | 0.00 | 0.00 | 0.00 | 31 | 1015.1 |
| 20260503223438 | 62 | 329 | 5.0 | 8.0 | 0.00 | 0.00 | 0.00 | 29 | 1015.3 |
| 20260503222934 | 62 | 297 | 1.0 | 4.0 | 0.00 | 0.00 | 0.00 | 32 | 1015.4 |
| 20260503222433 | 63 | 338 | 8.0 | 10.0 | 0.00 | 0.00 | 0.00 | 31 | 1015.2 |
| 20260503221931 | 62 | 279 | 1.0 | 4.0 | 0.00 | 0.00 | 0.00 | 29 | 1015.3 |
| 20260503221429 | 62 | 358 | 8.0 | 11.0 | 0.00 | 0.00 | 0.00 | 31 | 1015.5 |
| 20260503220925 | 62 | 350 | 5.0 | 7.0 | 0.00 | 0.00 | 0.00 | 31 | 1015.6 |
| 20260503220421 | 63 | 266 | 3.0 | 6.0 | 0.00 | 0.00 | 0.00 | 30 | 1015.6 |
| 20260503215919 | 62 | 232 | 0.0 | 4.0 | 0.00 | 0.00 | 0.00 | 29 | 1015.5 |
| 20260503215415 | 63 | 324 | 2.0 | 7.0 | 0.00 | 0.00 | 0.00 | 32 | 1015.4 |
| 20260503214913 | 63 | 323 | 2.0 | 6.0 | 0.00 | 0.00 | 0.00 | 35 | 1015.4 |
| 20260503214410 | 62 | 7 | 5.0 | 6.0 | 0.00 | 0.00 | 0.00 | 29 | 1015.6 |
| 20260503213908 | 62 | 7 | 7.0 | 13.0 | 0.00 | 0.00 | 0.00 | 29 | 1015.5 |
| 20260503213406 | 62 | 346 | 2.0 | 6.0 | 0.00 | 0.00 | 0.00 | 30 | 1015.5 |
| 20260503212902 | 63 | 27 | 5.0 | 9.0 | 0.00 | 0.00 | 0.00 | 31 | 1015.4 |
| 20260503212400 | 62 | 323 | 6.0 | 13.0 | 0.00 | 0.00 | 0.00 | 33 | 1015.5 |
| 20260503211857 | 62 | 350 | 3.0 | 8.0 | 0.00 | 0.00 | 0.00 | 32 | 1015.5 |
| 20260503211353 | 62 | 348 | 5.0 | 10.0 | 0.00 | 0.00 | 0.00 | 32 | 1015.5 |
| 20260503210848 | 63 | 316 | 2.0 | 13.0 | 0.00 | 0.00 | 0.00 | 32 | 1015.6 |
| 20260503210346 | 62 | 296 | 3.0 | 4.0 | 0.00 | 0.00 | 0.00 | 30 | 1015.5 |
| 20260503205841 | 62 | 301 | 6.0 | 9.0 | 0.00 | 0.00 | 0.00 | 34 | 1015.5 |
| 20260503205338 | 62 | 338 | 7.0 | 8.0 | 0.00 | 0.00 | 0.00 | 30 | 1015.5 |
| 20260503204834 | 62 | 328 | 7.0 | 14.0 | 0.00 | 0.00 | 0.00 | 32 | 1015.4 |
| 20260503204332 | 62 | 258 | 4.0 | 8.0 | 0.00 | 0.00 | 0.00 | 30 | 1015.5 |
| 20260503203829 | 62 | 1 | 4.0 | 14.0 | 0.00 | 0.00 | 0.00 | 32 | 1015.5 |
| 20260503203326 | 62 | 320 | 11.0 | 13.0 | 0.00 | 0.00 | 0.00 | 30 | 1015.5 |
| 20260503202823 | 63 | 261 | 4.0 | 10.0 | 0.00 | 0.00 | 0.00 | 29 | 1015.6 |
| 20260503202321 | 60 | 258 | 4.0 | 6.0 | 0.00 | 0.00 | 0.00 | 31 | 1015.7 |
| 20260503201819 | 62 | 305 | 2.0 | 7.0 | 0.00 | 0.00 | 0.00 | 34 | 1015.8 |
| 20260503201316 | 62 | 279 | 4.0 | 9.0 | 0.00 | 0.00 | 0.00 | 34 | 1015.7 |
| 20260503200813 | 62 | 16 | 2.0 | 10.0 | 0.00 | 0.00 | 0.00 | 32 | 1015.9 |
| 20260503200309 | 61 | 13 | 6.0 | 8.0 | 0.00 | 0.00 | 0.00 | 32 | 1015.8 |
| 20260503195807 | 60 | 352 | 7.0 | 10.0 | 0.00 | 0.00 | 0.00 | 32 | 1016.0 |
| 20260503195304 | 62 | 21 | 2.0 | 10.0 | 0.00 | 0.00 | 0.00 | 32 | 1016.1 |
| 20260503194800 | 61 | 318 | 6.0 | 8.0 | 0.00 | 0.00 | 0.00 | 29 | 1016.4 |
| 20260503194256 | 61 | 317 | 3.0 | 7.0 | 0.00 | 0.00 | 0.00 | 29 | 1016.4 |
| 20260503193752 | 61 | 326 | 6.0 | 11.0 | 0.00 | 0.00 | 0.00 | 30 | 1016.6 |
| 20260503193249 | 61 | 6 | 4.0 | 11.0 | 0.00 | 0.00 | 0.00 | 32 | 1016.1 |
| 20260503192744 | 60 | 311 | 6.0 | 8.0 | 0.00 | 0.00 | 0.00 | 30 | 1016.3 |
| 20260503192239 | 61 | 326 | 4.0 | 8.0 | 0.00 | 0.00 | 0.00 | 35 | 1016.6 |
| 20260503191737 | 61 | 342 | 9.0 | 14.0 | 0.00 | 0.00 | 0.00 | 30 | 1016.7 |
| 20260503191234 | 61 | 24 | 6.0 | 10.0 | 0.00 | 0.00 | 0.00 | 32 | 1016.6 |
| 20260503190731 | 60 | 101 | 2.0 | 8.0 | 0.00 | 0.00 | 0.00 | 33 | 1016.7 |
| 20260503190227 | 61 | 339 | 3.0 | 8.0 | 0.00 | 0.00 | 0.00 | 38 | 1016.6 |
| 20260503185725 | 60 | 319 | 4.0 | 14.0 | 0.00 | 0.00 | 0.00 | 30 | 1016.6 |
| 20260503185220 | 60 | 309 | 6.0 | 10.0 | 0.00 | 0.00 | 0.00 | 33 | 1017.1 |
| 20260503184715 | 60 | 344 | 6.0 | 10.0 | 0.00 | 0.00 | 0.00 | 31 | 1017.0 |
| 20260503184211 | 58 | 337 | 7.0 | 11.0 | 0.00 | 0.00 | 0.00 | 33 | 1017.2 |
| 20260503183708 | 58 | 290 | 9.0 | 10.0 | 0.00 | 0.00 | 0.00 | 36 | 1017.1 |
| 20260503183205 | 60 | 19 | 7.0 | 10.0 | 0.00 | 0.00 | 0.00 | 32 | 1017.1 |
| 20260503182704 | 60 | 355 | 7.0 | 11.0 | 0.00 | 0.00 | 0.00 | 35 | 1017.2 |
| 20260503182202 | 58 | 259 | 7.0 | 13.0 | 0.00 | 0.00 | 0.00 | 34 | 1017.0 |
| 20260503181658 | 59 | 354 | 3.0 | 9.0 | 0.00 | 0.00 | 0.00 | 36 | 1017.2 |
| 20260503181155 | 58 | 135 | 1.0 | 7.0 | 0.00 | 0.00 | 0.00 | 40 | 1017.3 |
| 20260503180651 | 58 | 20 | 4.0 | 9.0 | 0.00 | 0.00 | 0.00 | 33 | 1017.2 |
| 20260503180150 | 58 | 11 | 7.0 | 13.0 | 0.00 | 0.00 | 0.00 | 36 | 1017.4 |
| 20260503175646 | 57 | 358 | 6.0 | 8.0 | 0.00 | 0.00 | 0.00 | 36 | 1017.5 |
| 20260503175144 | 58 | 353 | 7.0 | 13.0 | 0.00 | 0.00 | 0.00 | 35 | 1017.5 |
| 20260503174640 | 58 | 266 | 1.0 | 4.0 | 0.00 | 0.00 | 0.00 | 38 | 1017.5 |
| 20260503174137 | 57 | 32 | 2.0 | 8.0 | 0.00 | 0.00 | 0.00 | 34 | 1017.5 |
| 20260503173632 | 58 | 21 | 14.0 | 15.0 | 0.00 | 0.00 | 0.00 | 34 | 1017.7 |
| 20260503173129 | 58 | 337 | 13.0 | 15.0 | 0.00 | 0.00 | 0.00 | 38 | 1017.7 |
| 20260503172626 | 57 | 316 | 2.0 | 9.0 | 0.00 | 0.00 | 0.00 | 37 | 1017.7 |
| 20260503172124 | 56 | 338 | 3.0 | 10.0 | 0.00 | 0.00 | 0.00 | 37 | 1017.8 |
| 20260503171620 | 57 | 28 | 11.0 | 14.0 | 0.00 | 0.00 | 0.00 | 36 | 1017.8 |
| 20260503171117 | 57 | 7 | 10.0 | 16.0 | 0.00 | 0.00 | 0.00 | 37 | 1017.9 |
| 20260503170614 | 56 | 24 | 5.0 | 10.0 | 0.00 | 0.00 | 0.00 | 38 | 1017.9 |
| 20260503170110 | 56 | 41 | 4.0 | 10.0 | 0.00 | 0.00 | 0.00 | 37 | 1018.1 |
| 20260503151006 | 50 | 355 | 8.0 | 14.0 | 0.00 | 0.00 | 0.00 | 45 | 1019.1 |
| 20260503150502 | 50 | 356 | 10.0 | 16.0 | 0.00 | 0.00 | 0.00 | 46 | 1019.0 |
| 20260503131355 | 47 | 326 | 6.0 | 11.0 | 0.00 | 0.00 | 0.00 | 55 | 1019.2 |
| 20260503130853 | 47 | 358 | 10.0 | 13.0 | 0.00 | 0.00 | 0.00 | 57 | 1019.4 |
| 20260503130350 | 46 | 13 | 3.0 | 9.0 | 0.00 | 0.00 | 0.00 | 56 | 1019.3 |
| 20260503110750 | 41 | 356 | 2.0 | 2.0 | 0.00 | 0.00 | 0.00 | 65 | 1018.4 |
| 20260503110247 | 41 | 356 | 1.0 | 2.0 | 0.00 | 0.00 | 0.00 | 66 | 1018.4 |
| 20260503100213 | 38 | 343 | 0.0 | 1.0 | 0.00 | 0.00 | 0.00 | 72 | 1017.7 |
| 20260503090137 | 39 | 286 | 1.0 | 3.0 | 0.00 | 0.00 | 0.00 | 71 | 1017.2 |
| 20260503081608 | 40 | 344 | 0.0 | 1.0 | 0.00 | 0.00 | 0.00 | 74 | 1017.1 |
| 20260503081105 | 40 | 352 | 2.0 | 3.0 | 0.00 | 0.00 | 0.00 | 74 | 1017.0 |
| 20260503080600 | 41 | 351 | 1.0 | 2.0 | 0.00 | 0.00 | 0.00 | 75 | 1017.1 |
| 20260503072539 | 41 | 308 | 0.0 | 1.0 | 0.00 | 0.00 | 0.00 | 75 | 1016.5 |
| 20260503072037 | 41 | 288 | 0.0 | 1.0 | 0.00 | 0.00 | 0.00 | 75 | 1016.4 |
| 20260503071533 | 41 | 287 | 0.0 | 2.0 | 0.00 | 0.00 | 0.00 | 75 | 1016.3 |
| 20260503071030 | 41 | 287 | 0.0 | 1.0 | 0.00 | 0.00 | 0.00 | 74 | 1016.4 |
| 20260503070526 | 42 | 287 | 0.0 | 1.0 | 0.00 | 0.00 | 0.00 | 73 | 1016.4 |
| 20260503054945 | 42 | 341 | 3.0 | 6.0 | 0.00 | 0.00 | 0.00 | 71 | 1016.1 |
| 20260503054441 | 42 | 354 | 2.0 | 7.0 | 0.00 | 0.00 | 0.00 | 70 | 1016.2 |
| 20260503053939 | 42 | 321 | 5.0 | 6.0 | 0.00 | 0.00 | 0.00 | 70 | 1016.1 |
| 20260503053437 | 42 | 327 | 5.0 | 8.0 | 0.00 | 0.00 | 0.00 | 70 | 1016.1 |
| 20260503052933 | 42 | 327 | 6.0 | 8.0 | 0.00 | 0.00 | 0.00 | 71 | 1016.2 |
| 20260503052431 | 42 | 321 | 4.0 | 8.0 | 0.00 | 0.00 | 0.00 | 71 | 1016.1 |
| 20260503051927 | 42 | 334 | 8.0 | 10.0 | 0.00 | 0.00 | 0.00 | 71 | 1016.1 |
| 20260503051423 | 42 | 328 | 7.0 | 9.0 | 0.00 | 0.00 | 0.00 | 71 | 1016.2 |
| 20260503050920 | 42 | 333 | 6.0 | 13.0 | 0.00 | 0.00 | 0.00 | 70 | 1016.2 |
| 20260503050416 | 42 | 351 | 6.0 | 7.0 | 0.00 | 0.00 | 0.00 | 71 | 1016.2 |
| 20260503045914 | 42 | 356 | 5.0 | 9.0 | 0.00 | 0.00 | 0.00 | 70 | 1016.2 |
| 20260503045411 | 43 | 337 | 6.0 | 8.0 | 0.00 | 0.00 | 0.00 | 70 | 1016.3 |
| 20260503044908 | 42 | 8 | 7.0 | 9.0 | 0.00 | 0.00 | 0.00 | 71 | 1016.3 |
| 20260503044404 | 43 | 10 | 5.0 | 7.0 | 0.00 | 0.00 | 0.00 | 71 | 1016.3 |
| 20260503043901 | 42 | 344 | 5.0 | 10.0 | 0.00 | 0.00 | 0.00 | 71 | 1016.1 |
| 20260503043358 | 43 | 331 | 4.0 | 7.0 | 0.00 | 0.00 | 0.00 | 70 | 1016.2 |
| 20260503042855 | 43 | 14 | 4.0 | 8.0 | 0.00 | 0.00 | 0.00 | 70 | 1016.2 |
| 20260503042351 | 43 | 7 | 6.0 | 8.0 | 0.00 | 0.00 | 0.00 | 69 | 1016.3 |
| 20260503041848 | 43 | 19 | 2.0 | 7.0 | 0.00 | 0.00 | 0.00 | 69 | 1016.4 |
| 20260503041345 | 43 | 9 | 3.0 | 6.0 | 0.00 | 0.00 | 0.00 | 68 | 1016.3 |
| 20260503040843 | 43 | 354 | 5.0 | 8.0 | 0.00 | 0.00 | 0.00 | 68 | 1016.3 |
| 20260503040340 | 43 | 356 | 4.0 | 6.0 | 0.00 | 0.00 | 0.00 | 68 | 1016.4 |
| 20260503035837 | 44 | 354 | 4.0 | 6.0 | 0.00 | 0.00 | 0.00 | 68 | 1016.3 |
| 20260503035334 | 44 | 339 | 5.0 | 10.0 | 0.00 | 0.00 | 0.00 | 67 | 1016.3 |